www.pogodaiklimat.ru

Погода и климат >> Архив погоды >> Боливия >> San Joaquin


ПОГОДА в San Joaquin

  • Прогноз погоды в San Joaquin
  • Монитор погоды в San Joaquin
  • Климат города

АРХИВ ПОГОДЫ в San Joaquin

Время (UTC), дата Ветер
(напр.,м/с)
 
Видим.   Явления Облачность Т
(С)
Тd
(С)
f
(%)
Тe
(С)
Тes
(С)
Комфортность P
(гПа)
Po
(гПа)
Тmin
(С)
Tmax
(С)
R
(мм)
R24
(мм)
S
(см)
12 15.04 Ю 6 15 км 8/6 450 м
[Sc Ac trans]
+22.3 +20.4 89 +29 +29 очень
душно
1017.7 1001.4 +20.2
15 15.04 Ю 8 15 км 10/10 450 м
[Sc]
+23.5 +20.2 82 +29 +29 душно 1019.0 1002.6
18 15.04 Ю 6 15 км 10/10 450 м
[Sc]
+23.5 +20.6 84 +29 +29 душно 1018.4 1002.0
21 15.04 Ю 4 15 км 10/10 450 м
[Sc]
+24.0 +21.4 85 +30 +30 очень
душно
1016.7 1000.3 +25.5
12 16.04 Ю 3 15 км 1/0
[Ci fib]
+22.7 +20.2 86 +29 +32 очень
душно
1018.1 1001.7 +19.5
15 16.04 Ю 5 15 км 8/6 450 м
[Sc]
+26.3 +20.9 72 +33 +35 очень
душно
1019.2 1003.0
18 16.04 Ю 2 15 км 6/6 500 м
[Cu med, cong]
+27.9 +22.4 72 +37 +42 очень
душно
1016.7 1000.5
21 16.04 Ю 3 15 км 4/4 500 м
[Cu med, cong]
+29.0 +22.7 69 +38 +39 очень
душно
1014.4 998.2 +30.6
12 17.04 штиль 0 15 км 1/0 2000 м
[Ac trans]
+23.7 +23.0 96 +31 +35 очень
душно
1015.2 998.9 +20.3
15 17.04 Ю 3 15 км 4/4 500 м
[Cu med, cong Ac trans]
+28.6 +22.7 70 +38 +46 очень
душно
1016.1 999.9
18 17.04 Ю 4 15 км 5/5 500 м
[Cu med, cong]
+30.0 +22.8 65 +40 +44 очень
душно
1014.9 998.7
21 17.04 Ю 2 15 км 1/1 500 м
[Cu med, cong]
+30.0 +22.8 65 +40 +41 очень
душно
1012.3 996.3 +31.3
12 18.04 штиль 0 15 км 5/1 240 м
[Sc Ac trans]
+25.0 +24.3 96 +35 +37 очень
душно
1015.7 999.5 +21.3
15 18.04 ЮВ 3 15 км 4/4 500 м
[Cu med, cong]
+29.5 +23.8 71 +40 +48 очень
душно
1016.3 1000.4
18 18.04 ЮВ 3 15 км 6/6 500 м
[Cb cap]
+30.7 +23.7 66 +42 +47 опасность
перегрева
1014.6 998.5
21 18.04 штиль 0 8000 м осадки на расстоянии {гроза} 5/5 500 м
[Cb cap]
+28.9 +20.7 61 +36 +37 очень
душно
1012.1 996.1 +32.4
12 19.04 штиль 0 15 км 1/0 2000 м
[Ac trans]
+24.4 +23.6 95 +33 +37 очень
душно
1016.1 999.9 +21.2
15 19.04 штиль 0 15 км 3/3 500 м
[Cu med, cong]
+30.1 +23.2 67 +41 +56 опасность
перегрева
1016.7 1000.6
18 19.04 штиль 0 15 км 5/5 500 м
[Cu med, cong]
+32.1 +23.4 60 +43 +53 опасность
перегрева
1014.3 998.3
21 19.04 штиль 0 15 км 3/3 500 м
[Cu med, cong]
+31.5 +23.7 63 +43 +44 опасность
перегрева
1012.0 996.0 +32.8
12 20.04 штиль 0 15 км 4/4 500 м
[Cu med, cong]
+24.3 +23.2 94 +33 +35 очень
душно
1015.3 999.2 +22.3
15 20.04 С 3 15 км 3/3 500 м
[Cu med, cong]
+29.8 +24.0 71 +41 +50 опасность
перегрева
1015.9 999.8
18 20.04 З 2 15 км 5/5 500 м
[Cu med, cong]
+32.1 +24.4 64 +45 +52 опасность
перегрева
1013.3 997.2
21 20.04 З 2 15 км 3/3 500 м
[Cu med, cong]
+31.3 +24.1 66 +43 +44 опасность
перегрева
1010.6 994.6 +32.7
12 21.04 штиль 0 15 км 8/1 600 м
[Cu med, cong Ac trans Ci]
+25.3 +24.5 95 +35 +37 очень
душно
1014.6 998.5 +22.0
15 21.04 С 3 15 км 8/4 500 м
[Cu med, cong Ac trans]
+28.5 +24.5 79 +40 +45 очень
душно
1015.6 999.5
18 21.04 СЗ 3 8000 м осадки на расстоянии 6/6 500 м
[Cb cap Ci]
+30.2 +25.3 75 +44 +49 опасность
перегрева
1013.0 997.0
21 21.04 С 5 8000 м гроза без осадков туман 8/4 500 м
[Cb cap Ci]
+30.2 +25.0 74 +44 +44 опасность
перегрева
1011.1 995.2 +31.3

 

Местоположение метеостанции San Joaquin (Боливия): широта -13.06 долгота -64.81 высота над уровнем моря 140 м.

В архиве по умолчанию представлена погода в San Joaquin за последнюю неделю. Архивные данные за месяц целиком и за предыдущие месяцы, начиная с января 2011 года, Вы можете получить, выбрав интересующий диапазон дат из раскрывающегося списка и нажав кнопку "Ввод!".


*Определитесь, кто Вы:
робот инопланетянин человек

Внимание! Время в таблицах - всемирное. Для получения местного времени необходимо прибавить поправку, которая в San Joaquin равна -4 ч.

Смотрите также архив погоды в соседних городах и на ближайших метеорологических станциях:

Погода в San Ramon (Боливия) (29 км)
Погода в Magdalena (Боливия) (82 км)
Погода в Baures (Боливия) (102 км)
Погода в Santa Ana (Боливия) (103 км)
Погода в Trinidad (Боливия) (195 км)
Погода в San Ignacio De Moxo (Боливия) (223 км)
Погода в Santa Rosa (Боливия) (257 км)
Погода в Riberalta (Боливия) (269 км)
Погода в San Borja (Боливия) (298 км)
Погода в Reyes (Боливия) (311 км)

Пояснения к столбцам:

Ветер - указаны скорость ветра в м/с - средняя за 10 мин, порывы в срок и между сроками (в фигурных скобках) и направление, откуда дует ветер: С - северный, СВ - северо-восточный, В - восточный, ЮВ - юго-восточный, Ю - южный, ЮЗ - юго-западный, З - западный, СЗ - северо-западный.
Видимость - горизонтальная дальность видимости в метрах или километрах. При видимости от 1 до 10 км при отсутствии осадков обычно наблюдается дымка, при ухудшении видимости до 1 км и менее - туман. В сухую погоду видимость может ухудшаться дымом, пылью или мглою.
Явления - указаны атмосферные явления, наблюдавшиеся в срок или в последний час перед сроком; фигурными скобками обозначены явления, наблюдавшиеся между сроками (за 1-3 часа до срока); квадратными скобками обозначены град или гололедные отложения с указанием их диаметра в мм.
Облачность - указаны через наклонную черту общая и нижняя облачность в баллах и высота нижней границы облаков в метрах; квадратными скобками обозначены формы облаков: Ci - перистые, Cs - перисто-слоистые, Cc - перисто-кучевые, Ac - высококучевые, As - высокослоистые, Sc - слоисто-кучевые, Ns - слоисто-дождевые, Cu - кучевые, Cb - кучево-дождевые. Подробнее классификацию облаков см. в Атласе облаков (PDF).
T - Температура воздуха - температура, измеренная на высоте 2 м над землей.
Td - Температура точки росы - температура, при понижении до которой содержащийся в воздухе водяной пар достигнет насыщения.
f - Относительная влажность воздуха - влажноcть воздуха, измеренная на высоте 2 м над землей.
Te - Эффективная температура - температура, которую ощущает одетый по сезону человек в тени. Характеристика душности погоды. При расчете учитывается влияние влажности воздуха и скорости ветра на теплоощущения человека.
Tes - Эффективная температура на солнце - температура, которую ощущает человек, с поправкой на солнечный нагрев. Характеристика знойности погоды. Зависит от высоты солнца над горизонтом, облачности и скорости ветра. Ночью, в пасмурную погоду, а также при ветре 12 м/с и более поправка равна нулю.
P - Атмосферное давление - приведенное к уровню моря атмосферное давление.
Po - Атмосферное давление - измеренное на уровне метеостанции атмосферное давление.
Tmin - Минимальная температура - минимум температуры воздуха на высоте 2 м над землей.
Tmax - Максимальная температура - максимум температуры воздуха на высоте 2 м над землей.
R - Количество осадков - Количество выпавших осадков за период времени, мм. При наведении курсора мыши на число - период времени, за который выпало указанное количество осадков.
R24 - Количество осадков - Количество выпавших осадков за 24 часа, мм.
S - Снежный покров - Высота снежного покрова, см. При наведении курсора мыши на число - состояние снежного покрова и степень покрытия местности в баллах.